Location: Boczkowice
(50.4274°N, 20.2066°E)
Time: 05:39:51
(UTC+00:00)

Daily predictions for brighter satellites

Satellite Brightness Start Highest point End
(mag) Time Altitude Azimuth Time Altitude Azimuth Time Altitude Azimuth
ACS3 Solar Sail 4.3 00:38:48 10° NE 00:39:56 14° NE 00:39:56 14° NE
CENTAUR R/B 4.0 01:52:52 37° N 01:54:21 40° NNE 02:02:40 10° E
Cosmos 2237 Rocket 3.8 01:55:42 30° E 01:55:42 30° E 01:59:56 10° NE
Cosmos 2369 Rocket 4.3 01:59:43 19° NNE 02:01:01 21° NE 02:05:14 10° E
Cosmos 2360 Rocket 4.4 02:10:53 16° N 02:10:53 16° N 02:12:12 10° NNE
ADEOS Rocket 3.6 02:03:16 10° NNE 02:08:51 63° NNE 02:08:51 63° NNE
Cosmos 2322 Rocket 4.4 02:15:59 16° N 02:15:59 16° N 02:17:21 10° NNE
SJ 16-02 3.8 02:15:02 19° E 02:15:02 19° E 02:16:57 10° ESE
Cosmos 2333 Rocket 4.4 02:17:29 16° N 02:17:29 16° N 02:18:55 10° NNE
USA 234 3.3 02:16:02 10° ESE 02:22:27 71° NNE 02:22:27 71° NNE
SL-16 R/B 4.5 02:26:41 13° N 02:26:41 13° N 02:27:45 10° N
ACS3 Solar Sail 2.8 02:20:42 10° NNE 02:24:02 36° N 02:24:02 36° N
COSMOS 2455 4.5 02:29:13 23° N 02:29:13 23° N 02:32:16 10° NNE
Gbstr 26 Del rocket 4.1 02:39:58 53° ENE 02:39:58 53° ENE 02:44:26 10° ENE
Cosmos 1656 Rocket 4.5 02:38:46 41° NNE 02:40:07 49° NE 02:45:36 10° SE
Meteor 1-24 Rocket 4.0 02:41:06 61° NE 02:41:06 61° NE 02:45:42 10° NNE
Cosmos 2219 Rocket 3.9 02:44:42 21° N 02:44:42 21° N 02:47:02 10° NNE
Cosmos 1725 Rocket 4.0 02:38:43 10° N 02:45:06 84° E 02:51:24 10° S
Lacrosse 4 Rocket 4.2 02:46:35 10° NNE 02:46:53 10° NNE 02:47:29 10° NNE
Cosmos 2233 Rocket 4.4 02:41:07 10° N 02:47:23 63° ENE 02:53:35 10° SSE
Lacrosse 5 rocket 3.7 02:49:50 16° ENE 02:49:50 16° ENE 02:50:46 10° ENE
NOSS 3-1 (C) 3.9 02:50:25 43° N 02:50:25 43° N 02:55:07 10° NE
Meteor 2-21 Rocket 4.3 02:52:23 56° S 02:53:49 87° E 02:59:56 10° N
Cosmos 2251 Rocket 3.7 02:56:27 68° SSE 02:56:27 68° SSE 03:01:05 10° SSE
SL-16 R/B 4.1 02:53:34 10° SSE 02:58:22 29° ESE 03:03:11 10° NE
Cosmos 1420 Rocket 4.4 02:57:42 39° S 02:59:30 61° ESE 03:04:44 10° NNE
H-2A R/B 4.1 02:56:18 10° N 02:57:08 15° N 02:57:08 15° N
PAYLOAD A 4.2 02:57:50 10° NNE 03:03:14 76° ESE 03:05:40 33° S
NOSS 0 Rocket 3.8 03:04:17 68° WNW 03:04:22 68° NW 03:10:32 10° NNE
SL-08 R/B 4.3 02:59:51 10° N 03:06:01 86° W 03:12:15 10° S
Cosmos 1802 Rocket 3.9 03:00:13 10° NNW 03:06:31 65° W 03:12:40 10° S
SL-08 RB Rocket 3.9 03:02:20 10° NNE 03:06:14 63° NE 03:06:14 63° NE
Cosmos 1812 4.5 03:14:35 22° ESE 03:14:35 22° ESE 03:16:15 10° SE
COSMOS 2428 3.5 03:21:07 35° NNW 03:21:07 35° NNW 03:25:29 10° NNE
Meteor 2-5 Rocket 3.7 03:19:34 55° WSW 03:20:32 63° WNW 03:26:17 10° N
CZ-2C R/B 2.4 03:16:15 10° N 03:21:17 67° WNW 03:21:33 66° W
Cosmos 1980 3.6 03:22:37 58° W 03:23:16 63° WNW 03:28:56 10° NNE
Cosmos 2123 Rocket 4.0 03:24:38 41° SW 03:26:30 56° WNW 03:32:35 10° N
Cosmos 1939 Rocket 2.8 03:22:46 10° NNE 03:26:13 69° NNE 03:26:13 69° NNE
USA 267 3.3 03:21:00 10° ENE 03:27:34 74° SE 03:31:27 27° SW
Cosmos 2016 Rocket 4.1 03:23:52 10° NNW 03:30:02 53° W 03:36:08 10° SSW
Cosmos 2278 Rocket 4.4 03:37:43 10° SSW 03:37:43 10° SSW 03:37:47 10° SSW
Cosmos 1190 Rocket 4.0 03:34:26 52° W 03:34:54 54° WSW 03:39:58 10° S
Cosmos 676 Rocket 3.8 03:34:41 30° NNW 03:37:19 79° WSW 03:42:30 10° SSE
NOSS 3-1 (A) 3.2 03:37:27 46° WNW 03:38:20 52° NW 03:44:18 10° NE
Cosmos 2237 Rocket 2.3 03:37:34 44° W 03:38:50 53° NW 03:44:23 10° NNE
ARGOS 3.4 03:34:42 10° N 03:39:51 44° WNW 03:40:21 43° W
Cosmos 2297 3.9 03:36:01 17° NNW 03:40:23 69° ENE 03:45:59 10° SE
ADEOS II 4.3 03:40:37 10° NNW 03:40:38 10° NNW 03:40:38 10° NNW
ATLAS 3B R/B 3.7 03:37:40 10° SSW 03:44:55 54° ESE 03:52:31 10° NE
Okean 2 Rocket 4.5 03:41:32 10° N 03:45:38 38° ENE 03:49:43 10° SE
Cosmos 2369 Rocket 2.3 03:41:31 17° NNW 03:46:00 77° ENE 03:51:42 10° SE
CENTAUR R/B 3.3 03:40:00 21° NW 03:46:05 84° NE 03:55:29 10° SE
Aureole 3 4.0 03:40:50 10° S 03:46:41 88° E 03:51:32 10° N
Cosmos 2056 Rocket 3.5 03:42:52 10° SSW 03:48:17 89° WNW 03:53:42 10° NNE
Cosmos 1954 Rocket 4.1 03:47:44 38° WNW 03:49:13 49° WSW 03:54:10 10° S
SJ 16-02 1.5 03:51:38 46° W 03:51:49 46° WSW 03:55:54 10° S
Orbus 7S? 3.2 03:51:03 37° WSW 03:52:44 83° NNW 03:55:44 10° ENE
Cosmos 2360 Rocket 4.2 03:52:38 12° NNW 03:53:05 12° NNW 03:55:03 10° N
SKYMED 2 3.4 03:49:18 10° S 03:53:38 78° WSW 03:58:01 10° NNW
ADEOS Rocket 4.2 03:49:34 10° N 03:55:02 27° NW 03:55:46 27° WNW
FengYun 1-2 T 4.1 03:51:16 10° NNE 03:56:51 75° WNW 04:02:26 10° SSW
IRS-1D 3.4 03:52:41 10° NNE 03:57:40 90° ESE 04:02:36 10° SSW
Cosmos 2322 Rocket 4.3 03:57:46 11° NNW 03:58:38 11° NNW 04:00:05 10° N
COSMO-SKYMED 1 2.4 03:55:41 10° SSE 03:59:48 89° E 04:03:58 10° NNW
Cosmos 2333 Rocket 4.3 03:59:31 10° NNW 04:00:47 11° NNW 04:02:03 10° N
USA 234 3.5 03:59:21 10° SE 04:05:45 53° SW 04:09:48 23° WNW
Cosmos 1371 Rocket 4.0 04:02:28 10° SSW 04:07:45 67° WNW 04:13:06 10° NNE
Cosmos 1025 Rocket 4.3 04:04:21 10° SSE 04:08:27 43° E 04:12:35 10° NNE
ACS3 Solar Sail 3.1 04:04:52 10° NNW 04:08:08 18° NW 04:08:08 18° NW
Cosmos 968 Rocket 3.4 04:05:05 10° NNW 04:10:17 82° WSW 04:15:32 10° SSE
NOSS 2-2 (E) 4.5 04:09:48 17° NNW 04:12:11 38° NE 04:16:32 10° ESE
Cosmos 1741 Rocket 4.1 04:07:36 10° NNW 04:12:58 81° ENE 04:18:16 10° SSE
Cosmos 1674 Rocket 4.0 04:08:50 10° S 04:13:13 66° E 04:17:36 10° NNE
Cosmos 371 Rocket 3.8 04:11:29 26° WNW 04:13:26 36° WSW 04:17:50 10° S
USA 59 Rocket 1.7 04:14:08 10° N 04:14:08 10° N 04:14:23 10° N
Meteor 1-21 Rocket 4.2 04:08:47 10° SSW 04:14:31 87° W 04:20:11 10° NNE
USA 306 2.2 04:15:46 36° W 04:17:00 74° NNW 04:20:53 10° ENE
CZ-4 R/B 3.8 04:13:27 10° N 04:18:18 67° WNW 04:23:01 10° SSW
CZ-3 R/B 4.2 04:12:25 10° SW 04:18:54 15° SSW 04:22:56 10° SSE
Cosmos 1400 Rocket 2.5 04:19:16 10° NNW 04:22:58 65° W 04:26:35 10° S
Cosmos 2221 Rocket 4.4 04:18:37 10° S 04:23:02 55° E 04:27:28 10° NNE
NOAA 12 4.0 04:17:53 10° N 04:23:12 69° WNW 04:28:28 10° SSW
Cosmos 1656 Rocket 4.3 04:20:09 19° NW 04:23:30 35° WSW 04:28:34 10° S
Cosmos 1110 Rocket 4.3 04:18:55 10° SSW 04:24:11 74° ESE 04:29:30 10° NNE
Cosmos 1484 Rocket 3.0 04:21:36 10° NNE 04:25:08 65° ESE 04:28:38 10° S
Lacrosse 5 rocket 0.9 04:23:30 25° NW 04:25:17 67° NNE 04:28:34 10° ESE
Gbstr 26 Del rocket 3.6 04:22:01 22° WNW 04:25:28 83° NNE 04:31:49 10° E
Lacrosse 4 Rocket 2.6 04:22:12 10° NNW 04:25:55 36° NE 04:29:34 10° ESE
Aureole 3 Rocket 4.0 04:22:47 10° NNW 04:27:38 49° W 04:34:15 10° SSW
Cosmos 2219 Rocket 4.2 04:26:24 10° NW 04:28:03 11° NNW 04:29:47 10° N
Cosmos 2151 Rocket 3.5 04:23:38 10° NNW 04:28:07 68° W 04:32:32 10° S
Cosmos 1455 Rocket 4.3 04:24:32 10° N 04:28:40 42° ENE 04:32:49 10° SE
Cosmos 1869 4.4 04:31:07 20° WSW 04:31:07 20° WSW 04:33:15 10° SW
In-Cosmos 22 Rocket 4.3 04:26:12 10° SSW 04:31:56 57° WNW 04:37:39 10° N
SWARM A 4.3 04:30:38 10° SSW 04:33:52 51° W 04:37:08 10° N
Sich 1 Rocket 3.6 04:30:44 10° N 04:35:18 86° W 04:39:48 10° S
Helios 1A Rocket 3.5 04:34:33 10° SSW 04:37:24 25° W 04:38:59 18° NW
Cosmos 1378 Rocket 3.6 04:36:50 10° SSW 04:40:58 49° WNW 04:45:10 10° N
Cosmos 1624 Rocket 4.4 04:36:56 10° SW 04:41:45 38° NW 04:46:36 10° NNE
SL-16 R/B 2.3 04:36:32 10° SW 04:42:08 57° NW 04:47:46 10° NNE
Cosmos 332 Rocket 3.8 04:37:34 10° NNW 04:42:20 64° WSW 04:47:02 10° S
NOSS 2-2 (C) 3.5 04:39:27 15° NW 04:42:34 70° SW 04:47:43 10° SSE
Cosmos 2242 Rocket 4.2 04:39:15 10° SW 04:43:13 33° WNW 04:47:14 10° N
Cosmos 1464 Rocket 4.0 04:38:30 10° NNW 04:44:34 63° W 04:50:36 10° S
Okean 1 Rocket 3.0 04:41:42 10° NNW 04:46:00 68° W 04:50:16 10° S
Cosmos 1812 3.8 04:46:27 15° W 04:46:27 15° W 04:47:55 10° SW
NOSS 3-2 (C) 4.4 04:46:56 10° NW 04:53:50 62° NE 05:02:17 10° ESE
Cosmos 2034 Rocket 4.0 04:49:43 10° NNW 04:56:05 76° W 05:02:25 10° S
Meteor 2-1 Rocket 4.3 04:51:21 10° NNW 04:57:14 68° W 05:02:58 10° S
Cosmos 1452 Rocket 3.5 04:52:06 10° SSW 04:57:20 83° WNW 05:02:37 10° NNE
CZ-2C R/B 4.2 04:56:04 10° NNW 04:58:28 13° NW 05:00:45 10° W
ARIANE 5 R/B 3.7 04:53:42 10° NNE 04:58:38 48° E 05:03:34 10° S
Cosmos 1850 Rocket 4.4 04:55:52 10° NW 05:00:41 41° WSW 05:05:30 10° S
IGS 5A 3.3 05:00:50 10° N 05:04:51 68° WNW 05:08:50 10° SSW
NOSS 2-2 (D) 3.5 05:01:07 10° NW 05:04:51 79° SW 05:09:57 10° SE
Cosmos 2084 3.3 05:04:10 10° NW 05:08:13 66° SW 05:12:11 10° SSE
Cosmos 1980 Rocket 4.4 05:05:26 10° N 05:08:51 16° NNE 05:12:17 10° ENE
CORIOLIS 4.5 05:03:40 10° NNE 05:09:02 74° ESE 05:14:21 10° S
USA 267 3.4 05:04:07 10° ENE 05:10:31 59° NNW 05:16:55 10° W
Cosmos 1331 Rocket 4.1 05:06:35 10° SW 05:11:43 53° WNW 05:16:51 10° NNE
Meteor 1-27 4.4 05:07:06 10° NNW 05:12:57 84° ENE 05:18:42 10° SSE
USA 229 DEB 3.6 05:08:06 10° WSW 05:14:06 64° NW 05:20:58 10° NE
Cosmos 1356 Rocket 3.9 05:10:11 10° N 05:14:14 64° ENE 05:18:18 10° SSE
USA 229 3.6 05:08:19 10° WSW 05:14:18 64° NW 05:21:10 10° NE
CZ-2D R/B 3.0 05:11:25 10° NNE 05:14:36 75° ESE 05:17:45 10° S
NOSS 3-2 (A) 4.2 05:07:30 10° NW 05:14:42 70° SW 05:23:24 10° SSE
Cosmos 1441 Rocket 2.8 05:12:28 10° SSW 05:15:48 84° W 05:19:09 10° N
SMAP 3.1 05:17:02 10° NNE 05:21:43 84° WNW 05:26:23 10° SSW
CBERS-1 4.1 05:17:09 10° N 05:22:10 56° WNW 05:27:09 10° SW
